Year,Month,Day,Hour,Minute,Value (Times are PST for temperature in C)
2023,10,01,00,00,6.80
2023,10,01,00,01,6.80
2023,10,01,00,02,6.80
2023,10,01,00,03,6.80
2023,10,01,00,04,6.80
2023,10,01,00,05,6.80
2023,10,01,00,06,6.80
2023,10,01,00,07,6.80
2023,10,01,00,08,6.80
2023,10,01,00,09,6.80
2023,10,01,00,10,6.80
2023,10,01,00,11,6.80
2023,10,01,00,12,6.80
2023,10,01,00,13,6.80
2023,10,01,00,14,6.80
2023,10,01,00,15,6.80
2023,10,01,00,16,6.80
2023,10,01,00,17,6.80
2023,10,01,00,18,6.70
2023,10,01,00,19,6.70
2023,10,01,00,20,6.70
2023,10,01,00,21,6.70
2023,10,01,00,22,6.70
2023,10,01,00,23,6.70
2023,10,01,00,24,6.70
2023,10,01,00,25,6.70
2023,10,01,00,26,6.70
2023,10,01,00,27,6.70
2023,10,01,00,28,6.70
2023,10,01,00,29,6.70
2023,10,01,00,30,6.70
2023,10,01,00,31,6.70
2023,10,01,00,32,6.70
2023,10,01,00,33,6.70
2023,10,01,00,34,6.70
2023,10,01,00,35,6.80
2023,10,01,00,36,6.80
2023,10,01,00,37,6.80
2023,10,01,00,38,6.80
2023,10,01,00,39,6.80
2023,10,01,00,40,6.80
2023,10,01,00,41,6.80
2023,10,01,00,42,6.80
2023,10,01,00,43,6.80
2023,10,01,00,44,6.70
2023,10,01,00,45,6.70
2023,10,01,00,46,6.70
2023,10,01,00,47,6.70
2023,10,01,00,48,6.70
2023,10,01,00,49,6.70
2023,10,01,00,50,6.70
2023,10,01,00,51,6.60
2023,10,01,00,52,6.60
2023,10,01,00,53,6.60
2023,10,01,00,54,6.60
2023,10,01,00,55,6.60
2023,10,01,00,56,6.60
2023,10,01,00,57,6.50
2023,10,01,00,58,6.40
2023,10,01,00,59,6.40
2023,10,01,01,00,6.40
2023,10,01,01,01,6.40
2023,10,01,01,02,6.40
2023,10,01,01,03,6.40
2023,10,01,01,04,6.40
2023,10,01,01,05,6.30
2023,10,01,01,06,6.30
2023,10,01,01,07,6.30
2023,10,01,01,08,6.20
2023,10,01,01,09,6.20
2023,10,01,01,10,6.20
2023,10,01,01,11,6.20
2023,10,01,01,12,6.20
2023,10,01,01,13,6.20
2023,10,01,01,14,6.20
2023,10,01,01,15,6.20
2023,10,01,01,16,6.20
2023,10,01,01,17,6.20
2023,10,01,01,18,6.20
2023,10,01,01,19,6.20
2023,10,01,01,20,6.20
2023,10,01,01,21,6.20
2023,10,01,01,22,6.20
2023,10,01,01,23,6.20
2023,10,01,01,24,6.20
2023,10,01,01,25,6.20
2023,10,01,01,26,6.20
2023,10,01,01,27,6.20
2023,10,01,01,28,6.20
2023,10,01,01,29,6.20
2023,10,01,01,30,6.20
2023,10,01,01,31,6.20
2023,10,01,01,32,6.20
2023,10,01,01,33,6.20
2023,10,01,01,34,6.20
2023,10,01,01,35,6.20
2023,10,01,01,36,6.10
2023,10,01,01,37,6.10
2023,10,01,01,38,6.10
2023,10,01,01,39,6.10
2023,10,01,01,40,6.10
2023,10,01,01,41,6.10
2023,10,01,01,42,6.00
2023,10,01,01,43,6.00
2023,10,01,01,44,6.00
2023,10,01,01,45,6.00
2023,10,01,01,46,6.00
2023,10,01,01,47,6.00
2023,10,01,01,48,6.00
2023,10,01,01,49,6.00
2023,10,01,01,50,6.00
2023,10,01,01,51,6.00
2023,10,01,01,52,6.00
2023,10,01,01,53,6.00
2023,10,01,01,54,6.00
2023,10,01,01,55,6.00
2023,10,01,01,56,6.00
2023,10,01,01,57,6.00
2023,10,01,01,58,6.00
2023,10,01,01,59,5.90
2023,10,01,02,00,5.90
2023,10,01,02,01,5.90
2023,10,01,02,02,5.90
2023,10,01,02,03,5.90
2023,10,01,02,04,5.90
2023,10,01,02,05,5.80
2023,10,01,02,06,5.80
2023,10,01,02,07,5.80
2023,10,01,02,08,5.80
2023,10,01,02,09,5.70
2023,10,01,02,10,5.70
2023,10,01,02,11,5.70
2023,10,01,02,12,5.70
2023,10,01,02,13,5.70
2023,10,01,02,14,5.70
2023,10,01,02,15,5.70
2023,10,01,02,16,5.70
2023,10,01,02,17,5.70
2023,10,01,02,18,5.70
2023,10,01,02,19,5.70
2023,10,01,02,20,5.70
2023,10,01,02,21,5.70
2023,10,01,02,22,5.70
2023,10,01,02,23,5.70
2023,10,01,02,24,5.70
2023,10,01,02,25,5.70
2023,10,01,02,26,5.70
2023,10,01,02,27,5.70
2023,10,01,02,28,5.70
2023,10,01,02,29,5.80
2023,10,01,02,30,5.80
2023,10,01,02,31,5.80
2023,10,01,02,32,5.90
2023,10,01,02,33,5.90
2023,10,01,02,34,6.00
2023,10,01,02,35,6.00
2023,10,01,02,36,6.00
2023,10,01,02,37,6.00
2023,10,01,02,38,6.00
2023,10,01,02,39,6.00
2023,10,01,02,40,6.00
2023,10,01,02,41,6.00
2023,10,01,02,42,6.00
2023,10,01,02,43,5.90
2023,10,01,02,44,5.90
2023,10,01,02,45,5.90
2023,10,01,02,46,5.90
2023,10,01,02,47,5.90
2023,10,01,02,48,5.90
2023,10,01,02,49,5.90
2023,10,01,02,50,6.00
2023,10,01,02,51,6.00
2023,10,01,02,52,6.00
2023,10,01,02,53,6.00
2023,10,01,02,54,6.10
2023,10,01,02,55,6.10
2023,10,01,02,56,6.00
2023,10,01,02,57,6.00
2023,10,01,02,58,6.00
2023,10,01,02,59,6.00
2023,10,01,03,00,6.00
2023,10,01,03,01,5.90
2023,10,01,03,02,5.90
2023,10,01,03,03,5.80
2023,10,01,03,04,5.80
2023,10,01,03,05,5.70
2023,10,01,03,06,5.70
2023,10,01,03,07,5.70
2023,10,01,03,08,5.70
2023,10,01,03,09,5.70
2023,10,01,03,10,5.70
2023,10,01,03,11,5.60
2023,10,01,03,12,5.60
2023,10,01,03,13,5.60
2023,10,01,03,14,5.60
2023,10,01,03,15,5.50
2023,10,01,03,16,5.50
2023,10,01,03,17,5.50
2023,10,01,03,18,5.50
2023,10,01,03,19,5.50
2023,10,01,03,20,5.50
2023,10,01,03,21,5.40
2023,10,01,03,22,5.40
2023,10,01,03,23,5.40
2023,10,01,03,24,5.40
2023,10,01,03,25,5.40
2023,10,01,03,26,5.40
2023,10,01,03,27,5.30
2023,10,01,03,28,5.30
2023,10,01,03,29,5.30
2023,10,01,03,30,5.30
2023,10,01,03,31,5.30
2023,10,01,03,32,5.30
2023,10,01,03,33,5.30
2023,10,01,03,34,5.30
2023,10,01,03,35,5.30
2023,10,01,03,36,5.30
2023,10,01,03,37,5.30
2023,10,01,03,38,5.30
2023,10,01,03,39,5.30
2023,10,01,03,40,5.30
2023,10,01,03,41,5.30
2023,10,01,03,42,5.30
2023,10,01,03,43,5.30
2023,10,01,03,44,5.30
2023,10,01,03,45,5.30
2023,10,01,03,46,5.30
2023,10,01,03,47,5.30
2023,10,01,03,48,5.30
2023,10,01,03,49,5.30
2023,10,01,03,50,5.30
2023,10,01,03,51,5.30
2023,10,01,03,52,5.30
2023,10,01,03,53,5.20
2023,10,01,03,54,5.20
2023,10,01,03,55,5.20
2023,10,01,03,56,5.20
2023,10,01,03,57,5.20
2023,10,01,03,58,5.20
2023,10,01,03,59,5.20
2023,10,01,04,00,5.20
2023,10,01,04,01,5.20
2023,10,01,04,02,5.20
2023,10,01,04,03,5.20
2023,10,01,04,04,5.20
2023,10,01,04,05,5.20
2023,10,01,04,06,5.20
2023,10,01,04,07,5.20
2023,10,01,04,08,5.20
2023,10,01,04,09,5.20
2023,10,01,04,10,5.20
2023,10,01,04,11,5.20
2023,10,01,04,12,5.20
2023,10,01,04,13,5.20
2023,10,01,04,14,5.20
2023,10,01,04,15,5.20
2023,10,01,04,16,5.20
2023,10,01,04,17,5.10
2023,10,01,04,18,5.10
2023,10,01,04,19,5.10
2023,10,01,04,20,5.10
2023,10,01,04,21,5.10
2023,10,01,04,22,5.10
2023,10,01,04,23,5.10
2023,10,01,04,24,5.10
2023,10,01,04,25,5.10
2023,10,01,04,26,5.00
2023,10,01,04,27,4.90
2023,10,01,04,28,4.90
2023,10,01,04,29,4.90
2023,10,01,04,30,4.90
2023,10,01,04,31,4.90
2023,10,01,04,32,4.90
2023,10,01,04,33,4.90
2023,10,01,04,34,4.90
2023,10,01,04,35,4.90
2023,10,01,04,36,4.90
2023,10,01,04,37,4.90
2023,10,01,04,38,4.90
2023,10,01,04,39,4.90
2023,10,01,04,40,4.90
2023,10,01,04,41,4.90
2023,10,01,04,42,4.90
2023,10,01,04,43,4.90
2023,10,01,04,44,4.90
2023,10,01,04,45,4.90
2023,10,01,04,46,4.90
2023,10,01,04,47,4.90
2023,10,01,04,48,4.90
2023,10,01,04,49,4.90
2023,10,01,04,50,4.90
2023,10,01,04,51,4.90
2023,10,01,04,52,4.90
2023,10,01,04,53,4.90
2023,10,01,04,54,4.90
2023,10,01,04,55,4.80
2023,10,01,04,56,4.80
2023,10,01,04,57,4.80
2023,10,01,04,58,4.80
2023,10,01,04,59,4.70
2023,10,01,05,00,4.70
2023,10,01,05,01,4.70
2023,10,01,05,02,4.70
2023,10,01,05,03,4.70
2023,10,01,05,04,4.60
2023,10,01,05,05,4.60
2023,10,01,05,06,4.60
2023,10,01,05,07,4.60
2023,10,01,05,08,4.60
2023,10,01,05,09,4.60
2023,10,01,05,10,4.60
2023,10,01,05,11,4.60
2023,10,01,05,12,4.60
2023,10,01,05,13,4.60
2023,10,01,05,14,4.60
2023,10,01,05,15,4.60
2023,10,01,05,16,4.60
2023,10,01,05,17,4.60
2023,10,01,05,18,4.60
2023,10,01,05,19,4.60
2023,10,01,05,20,4.60
2023,10,01,05,21,4.60
2023,10,01,05,22,4.60
2023,10,01,05,23,4.60
2023,10,01,05,24,4.60
2023,10,01,05,25,4.60
2023,10,01,05,26,4.60
2023,10,01,05,27,4.60
2023,10,01,05,28,4.60
2023,10,01,05,29,4.60
2023,10,01,05,30,4.60
2023,10,01,05,31,4.60
2023,10,01,05,32,4.60
2023,10,01,05,33,4.60
2023,10,01,05,34,4.60
2023,10,01,05,35,4.60
2023,10,01,05,36,4.60
2023,10,01,05,37,4.60
2023,10,01,05,38,4.60
2023,10,01,05,39,4.60
2023,10,01,05,40,4.60
2023,10,01,05,41,4.50
2023,10,01,05,42,4.50
2023,10,01,05,43,4.50
2023,10,01,05,44,4.50
2023,10,01,05,45,4.40
2023,10,01,05,46,4.40
2023,10,01,05,47,4.40
2023,10,01,05,48,4.40
2023,10,01,05,49,4.40
2023,10,01,05,50,4.40
2023,10,01,05,51,4.30
2023,10,01,05,52,4.30
2023,10,01,05,53,4.30
2023,10,01,05,54,4.30
2023,10,01,05,55,4.30
2023,10,01,05,56,4.30
2023,10,01,05,57,4.30
2023,10,01,05,58,4.20
2023,10,01,05,59,4.20
2023,10,01,06,00,4.20
2023,10,01,06,01,4.20
2023,10,01,06,02,4.30
2023,10,01,06,03,4.30
2023,10,01,06,04,4.40
2023,10,01,06,05,4.40
2023,10,01,06,06,4.40
2023,10,01,06,07,4.50
2023,10,01,06,08,4.50
2023,10,01,06,09,4.50
2023,10,01,06,10,4.50
2023,10,01,06,11,4.40
2023,10,01,06,12,4.40
2023,10,01,06,13,4.40
2023,10,01,06,14,4.40
2023,10,01,06,15,4.40
2023,10,01,06,16,4.40
2023,10,01,06,17,4.40
2023,10,01,06,18,4.30
2023,10,01,06,19,4.30
2023,10,01,06,20,4.30
2023,10,01,06,21,4.30
2023,10,01,06,22,4.30
2023,10,01,06,23,4.30
2023,10,01,06,24,4.30
2023,10,01,06,25,4.20
2023,10,01,06,26,4.20
2023,10,01,06,27,4.20
2023,10,01,06,28,4.20
2023,10,01,06,29,4.20
2023,10,01,06,30,4.20
2023,10,01,06,31,4.20
2023,10,01,06,32,4.20
2023,10,01,06,33,4.20
2023,10,01,06,34,4.20
2023,10,01,06,35,4.20
2023,10,01,06,36,4.20
2023,10,01,06,37,4.30
2023,10,01,06,38,4.30
2023,10,01,06,39,4.30
2023,10,01,06,40,4.40
2023,10,01,06,41,4.40
2023,10,01,06,42,4.40
2023,10,01,06,43,4.40
2023,10,01,06,44,4.40
2023,10,01,06,45,4.40
2023,10,01,06,46,4.30
2023,10,01,06,47,4.30
2023,10,01,06,48,4.30
2023,10,01,06,49,4.30
2023,10,01,06,50,4.30
2023,10,01,06,51,4.30
2023,10,01,06,52,4.30
2023,10,01,06,53,4.30
2023,10,01,06,54,4.30
2023,10,01,06,55,4.30
2023,10,01,06,56,4.30
2023,10,01,06,57,4.30
2023,10,01,06,58,4.20
2023,10,01,06,59,4.20
2023,10,01,07,00,4.20
2023,10,01,07,01,4.20
2023,10,01,07,02,4.20
2023,10,01,07,03,4.20
2023,10,01,07,04,4.20
2023,10,01,07,05,4.20
2023,10,01,07,06,4.10
2023,10,01,07,07,4.10
2023,10,01,07,08,4.10
2023,10,01,07,09,4.10
2023,10,01,07,10,4.10
2023,10,01,07,11,4.10
2023,10,01,07,12,4.10
2023,10,01,07,13,4.10
2023,10,01,07,14,4.10
2023,10,01,07,15,4.10
2023,10,01,07,16,4.10
2023,10,01,07,17,4.10
2023,10,01,07,18,4.20
2023,10,01,07,19,4.20
2023,10,01,07,20,4.20
2023,10,01,07,21,4.20
2023,10,01,07,22,4.20
2023,10,01,07,23,4.20
2023,10,01,07,24,4.20
2023,10,01,07,25,4.20
2023,10,01,07,26,4.20
2023,10,01,07,27,4.20
2023,10,01,07,28,4.20
2023,10,01,07,29,4.20
2023,10,01,07,30,4.20
2023,10,01,07,31,4.20
2023,10,01,07,32,4.20
2023,10,01,07,33,4.20
2023,10,01,07,34,4.30
2023,10,01,07,35,4.30
2023,10,01,07,36,4.30
2023,10,01,07,37,4.30
2023,10,01,07,38,4.30
2023,10,01,07,39,4.40
2023,10,01,07,40,4.40
2023,10,01,07,41,4.40
2023,10,01,07,42,4.50
2023,10,01,07,43,4.50
2023,10,01,07,44,4.50
2023,10,01,07,45,4.60
2023,10,01,07,46,4.60
2023,10,01,07,47,4.60
2023,10,01,07,48,4.70
2023,10,01,07,49,4.70
2023,10,01,07,50,4.80
2023,10,01,07,51,4.80
2023,10,01,07,52,4.90
2023,10,01,07,53,4.90
2023,10,01,07,54,4.90
2023,10,01,07,55,4.90
2023,10,01,07,56,5.00
2023,10,01,07,57,5.10
2023,10,01,07,58,5.10
2023,10,01,07,59,5.10
2023,10,01,08,00,5.10
2023,10,01,08,01,5.20
2023,10,01,08,02,5.20
2023,10,01,08,03,5.30
2023,10,01,08,04,5.30
2023,10,01,08,05,5.40
2023,10,01,08,06,5.40
2023,10,01,08,07,5.50
2023,10,01,08,08,5.60
2023,10,01,08,09,5.60
2023,10,01,08,10,5.70
2023,10,01,08,11,5.70
2023,10,01,08,12,5.70
2023,10,01,08,13,5.80
2023,10,01,08,14,5.90
2023,10,01,08,15,5.90
2023,10,01,08,16,6.00
2023,10,01,08,17,6.10
2023,10,01,08,18,6.10
2023,10,01,08,19,6.20
2023,10,01,08,20,6.20
2023,10,01,08,21,6.30
2023,10,01,08,22,6.40
2023,10,01,08,23,6.50
2023,10,01,08,24,6.60
2023,10,01,08,25,6.80
2023,10,01,08,26,6.80
2023,10,01,08,27,7.00
2023,10,01,08,28,7.10
2023,10,01,08,29,7.20
2023,10,01,08,30,7.30
2023,10,01,08,31,7.30
2023,10,01,08,32,7.50
2023,10,01,08,33,7.60
2023,10,01,08,34,7.70
2023,10,01,08,35,7.80
2023,10,01,08,36,8.00
2023,10,01,08,37,8.10
2023,10,01,08,38,8.30
2023,10,01,08,39,8.40
2023,10,01,08,40,8.50
2023,10,01,08,41,8.50
2023,10,01,08,42,8.60
2023,10,01,08,43,8.70
2023,10,01,08,44,8.90
2023,10,01,08,45,9.00
2023,10,01,08,46,9.10
2023,10,01,08,47,9.20
2023,10,01,08,48,9.40
2023,10,01,08,49,9.50
2023,10,01,08,50,9.60
2023,10,01,08,51,9.70
2023,10,01,08,52,9.80
2023,10,01,08,53,9.90
2023,10,01,08,54,10.00
2023,10,01,08,55,10.10
2023,10,01,08,56,10.20
2023,10,01,08,57,10.30
2023,10,01,08,58,10.40
2023,10,01,08,59,10.50
2023,10,01,09,00,10.60
2023,10,01,09,01,10.70
2023,10,01,09,02,10.90
2023,10,01,09,03,11.00
2023,10,01,09,04,11.10
2023,10,01,09,05,11.20
2023,10,01,09,06,11.20
2023,10,01,09,07,11.30
2023,10,01,09,08,11.40
2023,10,01,09,09,11.40
2023,10,01,09,10,11.50
2023,10,01,09,11,11.60
2023,10,01,09,12,11.70
2023,10,01,09,13,11.80
2023,10,01,09,14,11.80
2023,10,01,09,15,11.90
2023,10,01,09,16,12.10
2023,10,01,09,17,12.20
2023,10,01,09,18,12.30
2023,10,01,09,19,12.40
2023,10,01,09,20,12.40
2023,10,01,09,21,12.50
2023,10,01,09,22,12.60
2023,10,01,09,23,12.70
2023,10,01,09,24,12.80
2023,10,01,09,25,12.80
2023,10,01,09,26,12.90
2023,10,01,09,27,13.00
2023,10,01,09,28,13.00
2023,10,01,09,29,13.20
2023,10,01,09,30,13.30
2023,10,01,09,31,13.30
2023,10,01,09,32,13.50
2023,10,01,09,33,13.50
2023,10,01,09,34,13.60
2023,10,01,09,35,13.60
2023,10,01,09,36,13.70
2023,10,01,09,37,13.70
2023,10,01,09,38,13.70
2023,10,01,09,39,13.60
2023,10,01,09,40,13.60
2023,10,01,09,41,13.70
2023,10,01,09,42,13.70
2023,10,01,09,43,13.70
2023,10,01,09,44,13.80
2023,10,01,09,45,13.90
2023,10,01,09,46,13.90
2023,10,01,09,47,14.00
2023,10,01,09,48,14.10
2023,10,01,09,49,14.10
2023,10,01,09,50,14.10
2023,10,01,09,51,14.20
2023,10,01,09,52,14.20
2023,10,01,09,53,14.20
2023,10,01,09,54,14.30
2023,10,01,09,55,14.30
2023,10,01,09,56,14.40
2023,10,01,09,57,14.40
2023,10,01,09,58,14.40
2023,10,01,09,59,14.40
2023,10,01,10,00,14.40
2023,10,01,10,01,14.40
2023,10,01,10,02,14.40
2023,10,01,10,03,14.40
2023,10,01,10,04,14.40
2023,10,01,10,05,14.40
2023,10,01,10,06,14.40
2023,10,01,10,07,14.40
2023,10,01,10,08,14.40
2023,10,01,10,09,14.50
2023,10,01,10,10,14.50
2023,10,01,10,11,14.60
2023,10,01,10,12,14.60
2023,10,01,10,13,14.60
2023,10,01,10,14,14.70
2023,10,01,10,15,14.80
2023,10,01,10,16,14.80
2023,10,01,10,17,14.90
2023,10,01,10,18,14.90
2023,10,01,10,19,14.90
2023,10,01,10,20,14.80
2023,10,01,10,21,14.80
2023,10,01,10,22,14.70
2023,10,01,10,23,14.70
2023,10,01,10,24,14.60
2023,10,01,10,25,14.60
2023,10,01,10,26,14.50
2023,10,01,10,27,14.50
2023,10,01,10,28,14.50
2023,10,01,10,29,14.50
2023,10,01,10,30,14.50
2023,10,01,10,31,14.50
2023,10,01,10,32,14.50
2023,10,01,10,33,14.60
2023,10,01,10,34,14.60
2023,10,01,10,35,14.70
2023,10,01,10,36,14.80
2023,10,01,10,37,14.80
2023,10,01,10,38,14.90
2023,10,01,10,39,14.90
2023,10,01,10,40,15.00
2023,10,01,10,41,15.00
2023,10,01,10,42,15.00
2023,10,01,10,43,15.10
2023,10,01,10,44,15.10
2023,10,01,10,45,15.10
2023,10,01,10,46,15.20
2023,10,01,10,47,15.30
2023,10,01,10,48,15.30
2023,10,01,10,49,15.30
2023,10,01,10,50,15.30
2023,10,01,10,51,15.30
2023,10,01,10,52,15.30
2023,10,01,10,53,15.40
2023,10,01,10,54,15.40
2023,10,01,10,55,15.40
2023,10,01,10,56,15.50
2023,10,01,10,57,15.60
2023,10,01,10,58,15.60
2023,10,01,10,59,15.60
2023,10,01,11,00,15.70
2023,10,01,11,01,15.70
2023,10,01,11,02,15.80
2023,10,01,11,03,15.80
2023,10,01,11,04,15.90
2023,10,01,11,05,16.00
2023,10,01,11,06,16.10
2023,10,01,11,07,16.10
2023,10,01,11,08,16.10
2023,10,01,11,09,16.20
2023,10,01,11,10,16.20
2023,10,01,11,11,16.20
2023,10,01,11,12,16.30
2023,10,01,11,13,16.30
2023,10,01,11,14,16.30
2023,10,01,11,15,16.20
2023,10,01,11,16,16.20
2023,10,01,11,17,16.20
2023,10,01,11,18,16.20
2023,10,01,11,19,16.20
2023,10,01,11,20,16.20
2023,10,01,11,21,16.10
2023,10,01,11,22,16.10
2023,10,01,11,23,16.10
2023,10,01,11,24,16.10
2023,10,01,11,25,16.10
2023,10,01,11,26,16.10
2023,10,01,11,27,16.10
2023,10,01,11,28,16.10
2023,10,01,11,29,16.00
2023,10,01,11,30,15.90
2023,10,01,11,31,15.90
2023,10,01,11,32,15.90
2023,10,01,11,33,15.90
2023,10,01,11,34,15.80
2023,10,01,11,35,15.80
2023,10,01,11,36,15.80
2023,10,01,11,37,15.70
2023,10,01,11,38,15.70
2023,10,01,11,39,15.70
2023,10,01,11,40,15.60
2023,10,01,11,41,15.60
2023,10,01,11,42,15.60
2023,10,01,11,43,15.60
2023,10,01,11,44,15.60
2023,10,01,11,45,15.60
2023,10,01,11,46,15.70
2023,10,01,11,47,15.70
2023,10,01,11,48,15.70
2023,10,01,11,49,15.60
2023,10,01,11,50,15.60
2023,10,01,11,51,15.60
2023,10,01,11,52,15.70
2023,10,01,11,53,15.70
2023,10,01,11,54,15.70
2023,10,01,11,55,15.70
2023,10,01,11,56,15.70
2023,10,01,11,57,15.70
2023,10,01,11,58,15.70
2023,10,01,11,59,15.70
2023,10,01,12,00,15.70
2023,10,01,12,01,15.70
2023,10,01,12,02,15.70
2023,10,01,12,03,15.70
2023,10,01,12,04,15.70
2023,10,01,12,05,15.70
2023,10,01,12,06,15.70
2023,10,01,12,07,15.70
2023,10,01,12,08,15.60
2023,10,01,12,09,15.70
2023,10,01,12,10,15.70
2023,10,01,12,11,15.70
2023,10,01,12,12,15.70
2023,10,01,12,13,15.70
2023,10,01,12,14,15.80
2023,10,01,12,15,15.80
2023,10,01,12,16,15.80
2023,10,01,12,17,15.80
2023,10,01,12,18,15.90
2023,10,01,12,19,15.90
2023,10,01,12,20,15.90
2023,10,01,12,21,15.80
2023,10,01,12,22,15.80
2023,10,01,12,23,15.80
2023,10,01,12,24,15.80
2023,10,01,12,25,15.80
2023,10,01,12,26,15.80
2023,10,01,12,27,15.90
2023,10,01,12,28,15.90
2023,10,01,12,29,15.90
2023,10,01,12,30,15.90
2023,10,01,12,31,15.90
2023,10,01,12,32,15.90
2023,10,01,12,33,15.90
2023,10,01,12,34,15.90
2023,10,01,12,35,15.90
2023,10,01,12,36,15.90
2023,10,01,12,37,16.00
2023,10,01,12,38,16.10
2023,10,01,12,39,16.10
2023,10,01,12,40,16.20
2023,10,01,12,41,16.20
2023,10,01,12,42,16.20
2023,10,01,12,43,16.20
2023,10,01,12,44,16.20
2023,10,01,12,45,16.20
2023,10,01,12,46,16.10
2023,10,01,12,47,16.10
2023,10,01,12,48,16.00
2023,10,01,12,49,15.90
2023,10,01,12,50,15.90
2023,10,01,12,51,15.90
2023,10,01,12,52,15.90
2023,10,01,12,53,16.00
2023,10,01,12,54,16.10
2023,10,01,12,55,16.10
2023,10,01,12,56,16.10
2023,10,01,12,57,16.20
2023,10,01,12,58,16.20
2023,10,01,12,59,16.20
2023,10,01,13,00,16.10
2023,10,01,13,01,16.20
2023,10,01,13,02,16.20
2023,10,01,13,03,16.10
2023,10,01,13,04,16.10
2023,10,01,13,05,16.10
2023,10,01,13,06,16.10
2023,10,01,13,07,16.20
2023,10,01,13,08,16.20
2023,10,01,13,09,16.30
2023,10,01,13,10,16.30
2023,10,01,13,11,16.40
2023,10,01,13,12,16.40
2023,10,01,13,13,16.40
2023,10,01,13,14,16.50
2023,10,01,13,15,16.60
2023,10,01,13,16,16.60
2023,10,01,13,17,16.60
2023,10,01,13,18,16.60
2023,10,01,13,19,16.60
2023,10,01,13,20,16.60
2023,10,01,13,21,16.60
2023,10,01,13,22,16.60
2023,10,01,13,23,16.50
2023,10,01,13,24,16.40
2023,10,01,13,25,16.40
2023,10,01,13,26,16.40
2023,10,01,13,27,16.40
2023,10,01,13,28,16.40
2023,10,01,13,29,16.40
2023,10,01,13,30,16.40
2023,10,01,13,31,16.50
2023,10,01,13,32,16.60
2023,10,01,13,33,16.70
2023,10,01,13,34,16.70
2023,10,01,13,35,16.80
2023,10,01,13,36,16.90
2023,10,01,13,37,17.00
2023,10,01,13,38,17.00
2023,10,01,13,39,17.00
2023,10,01,13,40,17.10
2023,10,01,13,41,17.10
2023,10,01,13,42,17.10
2023,10,01,13,43,17.10
2023,10,01,13,44,17.10
2023,10,01,13,45,17.10
2023,10,01,13,46,17.20
2023,10,01,13,47,17.20
2023,10,01,13,48,17.20
2023,10,01,13,49,17.20
2023,10,01,13,50,17.20
2023,10,01,13,51,17.20
2023,10,01,13,52,17.30
2023,10,01,13,53,17.30
2023,10,01,13,54,17.30
2023,10,01,13,55,17.30
2023,10,01,13,56,17.20
2023,10,01,13,57,17.20
2023,10,01,13,58,17.20
2023,10,01,13,59,17.10
2023,10,01,14,00,17.10
2023,10,01,14,01,17.10
2023,10,01,14,02,17.00
2023,10,01,14,03,16.90
2023,10,01,14,04,16.80
2023,10,01,14,05,16.70
2023,10,01,14,06,16.60
2023,10,01,14,07,16.40
2023,10,01,14,08,16.40
2023,10,01,14,09,16.40
2023,10,01,14,10,16.30
2023,10,01,14,11,16.30
2023,10,01,14,12,16.40
2023,10,01,14,13,16.40
2023,10,01,14,14,16.40
2023,10,01,14,15,16.40
2023,10,01,14,16,16.40
2023,10,01,14,17,16.40
2023,10,01,14,18,16.40
2023,10,01,14,19,16.40
2023,10,01,14,20,16.50
2023,10,01,14,21,16.60
2023,10,01,14,22,16.70
2023,10,01,14,23,16.70
2023,10,01,14,24,16.70
2023,10,01,14,25,16.70
2023,10,01,14,26,16.70
2023,10,01,14,27,16.70
2023,10,01,14,28,16.70
2023,10,01,14,29,16.70
2023,10,01,14,30,16.70
2023,10,01,14,31,16.70
2023,10,01,14,32,16.70
2023,10,01,14,33,16.70
2023,10,01,14,34,16.70
2023,10,01,14,35,16.70
2023,10,01,14,36,16.70
2023,10,01,14,37,16.70
2023,10,01,14,38,16.70
2023,10,01,14,39,16.70
2023,10,01,14,40,16.70
2023,10,01,14,41,16.70
2023,10,01,14,42,16.70
2023,10,01,14,43,16.70
2023,10,01,14,44,16.80
2023,10,01,14,45,16.80
2023,10,01,14,46,16.70
2023,10,01,14,47,16.70
2023,10,01,14,48,16.70
2023,10,01,14,49,16.70
2023,10,01,14,50,16.70
2023,10,01,14,51,16.70
2023,10,01,14,52,16.70
2023,10,01,14,53,16.70
2023,10,01,14,54,16.70
2023,10,01,14,55,16.70
2023,10,01,14,56,16.60
2023,10,01,14,57,16.60
2023,10,01,14,58,16.60
2023,10,01,14,59,16.60
2023,10,01,15,00,16.60
2023,10,01,15,01,16.60
2023,10,01,15,02,16.60
2023,10,01,15,03,16.60
2023,10,01,15,04,16.60
2023,10,01,15,05,16.70
2023,10,01,15,06,16.70
2023,10,01,15,07,16.70
2023,10,01,15,08,16.70
2023,10,01,15,09,16.70
2023,10,01,15,10,16.70
2023,10,01,15,11,16.60
2023,10,01,15,12,16.60
2023,10,01,15,13,16.40
2023,10,01,15,14,16.40
2023,10,01,15,15,16.40
2023,10,01,15,16,16.40
2023,10,01,15,17,16.30
2023,10,01,15,18,16.30
2023,10,01,15,19,16.20
2023,10,01,15,20,16.20
2023,10,01,15,21,16.20
2023,10,01,15,22,16.10
2023,10,01,15,23,16.10
2023,10,01,15,24,16.10
2023,10,01,15,25,16.10
2023,10,01,15,26,16.10
2023,10,01,15,27,16.00
2023,10,01,15,28,15.90
2023,10,01,15,29,15.90
2023,10,01,15,30,15.90
2023,10,01,15,31,15.80
2023,10,01,15,32,15.80
2023,10,01,15,33,15.80
2023,10,01,15,34,15.80
2023,10,01,15,35,15.90
2023,10,01,15,36,15.90
2023,10,01,15,37,15.90
2023,10,01,15,38,15.90
2023,10,01,15,39,15.90
2023,10,01,15,40,15.90
2023,10,01,15,41,15.90
2023,10,01,15,42,15.80
2023,10,01,15,43,15.80
2023,10,01,15,44,15.80
2023,10,01,15,45,15.80
2023,10,01,15,46,15.70
2023,10,01,15,47,15.70
2023,10,01,15,48,15.70
2023,10,01,15,49,15.80
2023,10,01,15,50,15.80
2023,10,01,15,51,15.70
2023,10,01,15,52,15.70
2023,10,01,15,53,15.70
2023,10,01,15,54,15.60
2023,10,01,15,55,15.60
2023,10,01,15,56,15.60
2023,10,01,15,57,15.60
2023,10,01,15,58,15.50
2023,10,01,15,59,15.50
2023,10,01,16,00,15.50
2023,10,01,16,01,15.50
2023,10,01,16,02,15.50
2023,10,01,16,03,15.50
2023,10,01,16,04,15.50
2023,10,01,16,05,15.50
2023,10,01,16,06,15.50
2023,10,01,16,07,15.50
2023,10,01,16,08,15.50
2023,10,01,16,09,15.40
2023,10,01,16,10,15.40
2023,10,01,16,11,15.40
2023,10,01,16,12,15.40
2023,10,01,16,13,15.30
2023,10,01,16,14,15.30
2023,10,01,16,15,15.30
2023,10,01,16,16,15.30
2023,10,01,16,17,15.30
2023,10,01,16,18,15.30
2023,10,01,16,19,15.30
2023,10,01,16,20,15.30
2023,10,01,16,21,15.20
2023,10,01,16,22,15.20
2023,10,01,16,23,15.20
2023,10,01,16,24,15.10
2023,10,01,16,25,15.10
2023,10,01,16,26,15.10
2023,10,01,16,27,15.10
2023,10,01,16,28,15.10
2023,10,01,16,29,15.00
2023,10,01,16,30,15.00
2023,10,01,16,31,15.00
2023,10,01,16,32,15.00
2023,10,01,16,33,15.00
2023,10,01,16,34,15.00
2023,10,01,16,35,14.90
2023,10,01,16,36,14.90
2023,10,01,16,37,14.90
2023,10,01,16,38,14.90
2023,10,01,16,39,14.90
2023,10,01,16,40,14.90
2023,10,01,16,41,14.90
2023,10,01,16,42,14.80
2023,10,01,16,43,14.80
2023,10,01,16,44,14.80
2023,10,01,16,45,14.80
2023,10,01,16,46,14.80
2023,10,01,16,47,14.80
2023,10,01,16,48,14.80
2023,10,01,16,49,14.80
2023,10,01,16,50,14.80
2023,10,01,16,51,14.80
2023,10,01,16,52,14.80
2023,10,01,16,53,14.80
2023,10,01,16,54,14.80
2023,10,01,16,55,14.80
2023,10,01,16,56,14.80
2023,10,01,16,57,14.80
2023,10,01,16,58,14.80
2023,10,01,16,59,14.80
2023,10,01,17,00,14.80
2023,10,01,17,01,14.80
2023,10,01,17,02,14.80
2023,10,01,17,03,14.70
2023,10,01,17,04,14.70
2023,10,01,17,05,14.70
2023,10,01,17,06,14.60
2023,10,01,17,07,14.60
2023,10,01,17,08,14.60
2023,10,01,17,09,14.50
2023,10,01,17,10,14.50
2023,10,01,17,11,14.50
2023,10,01,17,12,14.40
2023,10,01,17,13,14.30
2023,10,01,17,14,14.30
2023,10,01,17,15,14.30
2023,10,01,17,16,14.20
2023,10,01,17,17,14.20
2023,10,01,17,18,14.20
2023,10,01,17,19,14.20
2023,10,01,17,20,14.20
2023,10,01,17,21,14.20
2023,10,01,17,22,14.20
2023,10,01,17,23,14.20
2023,10,01,17,24,14.20
2023,10,01,17,25,14.20
2023,10,01,17,26,14.20
2023,10,01,17,27,14.20
2023,10,01,17,28,14.20
2023,10,01,17,29,14.20
2023,10,01,17,30,14.20
2023,10,01,17,31,14.20
2023,10,01,17,32,14.20
2023,10,01,17,33,14.20
2023,10,01,17,34,14.20
2023,10,01,17,35,14.20
2023,10,01,17,36,14.20
2023,10,01,17,37,14.20
2023,10,01,17,38,14.10
2023,10,01,17,39,14.10
2023,10,01,17,40,14.10
2023,10,01,17,41,14.10
2023,10,01,17,42,14.10